Hourly Weather Ruszow

Today, 22 April, Thursday

Time Temperature Precipitation Wind Pressure Humidity
00:00 +7°C° 0 mm 3 mps 738 mmHg 88%
01:00 +7°C° 0 mm 3 mps 738 mmHg 88%
02:00 +7°C° 0 mm 3 mps 738 mmHg 88%
03:00 +5°C° 0 mm 3 mps 738 mmHg 89%
04:00 +5°C° 0 mm 3 mps 738 mmHg 90%
05:00 +5°C° 0 mm 4 mps 738 mmHg 91%
06:00 +6°C° 0 mm 4 mps 739 mmHg 89%
07:00 +7°C° 0 mm 5 mps 739 mmHg 86%
08:00 +8°C° 0 mm 5 mps 739 mmHg 83%
09:00 +9°C° 0.3 mm 5 mps 739 mmHg 80%
10:00 +9°C° 0.3 mm 5 mps 739 mmHg 77%
11:00 +10°C° 0.3 mm 5 mps 739 mmHg 73%
12:00 +8°C° 0.3 mm 5 mps 740 mmHg 78%
13:00 +7°C° 0.3 mm 5 mps 740 mmHg 83%
14:00 +4°C° 0.3 mm 6 mps 740 mmHg 88%
15:00 +5°C° 0.1 mm 5 mps 740 mmHg 84%
16:00 +5°C° 0.1 mm 4 mps 741 mmHg 81%
17:00 +5°C° 0.1 mm 4 mps 741 mmHg 78%
18:00 +5°C° 0 mm 3 mps 741 mmHg 77%
19:00 +4°C° 0 mm 3 mps 741 mmHg 76%
20:00 +4°C° 0 mm 3 mps 741 mmHg 75%
21:00 +4°C° 0 mm 2 mps 741 mmHg 76%
22:00 +3°C° 0 mm 2 mps 742 mmHg 76%
23:00 +3°C° 0 mm 2 mps 742 mmHg 77%

Tomorrow, 23 April, Friday

Time Temperature Precipitation Wind Pressure Humidity
00:00 +2°C° 0 mm 2 mps 742 mmHg 79%
01:00 +2°C° 0 mm 2 mps 742 mmHg 81%
02:00 0°C° 0 mm 3 mps 742 mmHg 83%
03:00 0°C° 0 mm 3 mps 742 mmHg 86%
04:00 -1°C° 0 mm 3 mps 742 mmHg 89%
05:00 -1°C° 0 mm 3 mps 743 mmHg 91%
06:00 -1°C° 0 mm 4 mps 743 mmHg 82%
07:00 +1°C° 0 mm 5 mps 743 mmHg 73%
08:00 +2°C° 0 mm 5 mps 743 mmHg 64%
09:00 +3°C° 0 mm 6 mps 743 mmHg 59%
10:00 +4°C° 0 mm 6 mps 744 mmHg 53%
11:00 +7°C° 0 mm 6 mps 744 mmHg 48%
12:00 +7°C° 0.2 mm 6 mps 743 mmHg 48%
13:00 +7°C° 0.2 mm 6 mps 743 mmHg 47%
14:00 +7°C° 0.2 mm 6 mps 743 mmHg 47%
15:00 +7°C° 0.2 mm 6 mps 743 mmHg 50%
16:00 +7°C° 0.2 mm 5 mps 743 mmHg 52%
17:00 +7°C° 0.2 mm 5 mps 743 mmHg 55%
18:00 +6°C° 0.1 mm 4 mps 743 mmHg 62%
19:00 +4°C° 0.1 mm 4 mps 743 mmHg 69%
20:00 +3°C° 0.1 mm 4 mps 743 mmHg 77%
21:00 +1°C° 0.1 mm 4 mps 743 mmHg 82%
22:00 0°C° 0.1 mm 5 mps 744 mmHg 87%
23:00 -1°C° 0.1 mm 5 mps 744 mmHg 92%

Day after tomorrow, 24 April, Saturday

Time Temperature Precipitation Wind Pressure Humidity
00:00 -1°C° 0 mm 5 mps 744 mmHg 92%
01:00 -2°C° 0 mm 5 mps 745 mmHg 92%
02:00 -3°C° 0 mm 4 mps 745 mmHg 93%
03:00 -3°C° 0 mm 4 mps 745 mmHg 92%
04:00 -3°C° 0 mm 4 mps 745 mmHg 91%
05:00 -3°C° 0 mm 4 mps 745 mmHg 89%
06:00 -1°C° 0 mm 4 mps 745 mmHg 81%
07:00 0°C° 0 mm 5 mps 746 mmHg 73%
08:00 +1°C° 0 mm 5 mps 746 mmHg 66%
09:00 +3°C° 0 mm 5 mps 746 mmHg 57%
10:00 +4°C° 0 mm 6 mps 746 mmHg 49%
11:00 +5°C° 0 mm 6 mps 746 mmHg 41%
12:00 +7°C° 0 mm 6 mps 745 mmHg 39%
13:00 +8°C° 0 mm 6 mps 745 mmHg 38%
14:00 +8°C° 0 mm 6 mps 745 mmHg 36%
15:00 +8°C° 0 mm 5 mps 745 mmHg 40%
16:00 +8°C° 0 mm 5 mps 745 mmHg 43%
17:00 +8°C° 0 mm 5 mps 744 mmHg 47%
18:00 +6°C° 0 mm 4 mps 744 mmHg 55%
19:00 +5°C° 0 mm 3 mps 744 mmHg 63%
20:00 +4°C° 0 mm 2 mps 744 mmHg 72%
21:00 +4°C° 0.1 mm 2 mps 744 mmHg 75%
22:00 +4°C° 0.1 mm 2 mps 744 mmHg 79%
23:00 +2°C° 0.1 mm 3 mps 744 mmHg 83%

25 April, Sunday

Time Temperature Precipitation Wind Pressure Humidity
00:00 +2°C° 0.1 mm 3 mps 744 mmHg 87%
01:00 +2°C° 0.1 mm 3 mps 744 mmHg 90%
02:00 +1°C° 0.1 mm 3 mps 744 mmHg 94%
03:00 +1°C° 0.1 mm 3 mps 744 mmHg 94%
04:00 +1°C° 0.1 mm 3 mps 744 mmHg 93%
05:00 -1°C° 0.1 mm 4 mps 744 mmHg 93%
06:00 0°C° 0.2 mm 4 mps 744 mmHg 86%
07:00 0°C° 0.2 mm 4 mps 745 mmHg 78%
08:00 0°C° 0.2 mm 5 mps 745 mmHg 71%
09:00 +1°C° 0 mm 5 mps 745 mmHg 66%
10:00 +2°C° 0 mm 5 mps 745 mmHg 60%
11:00 +3°C° 0 mm 5 mps 746 mmHg 55%
12:00 +3°C° 0.1 mm 5 mps 746 mmHg 53%
13:00 +5°C° 0.1 mm 5 mps 745 mmHg 51%
14:00 +5°C° 0.1 mm 5 mps 745 mmHg 48%
15:00 +5°C° 0.1 mm 5 mps 745 mmHg 50%
16:00 +5°C° 0.1 mm 5 mps 745 mmHg 52%
17:00 +5°C° 0.1 mm 5 mps 745 mmHg 54%
18:00 +4°C° 0.1 mm 4 mps 745 mmHg 60%
19:00 +3°C° 0.1 mm 3 mps 745 mmHg 66%
20:00 +2°C° 0.1 mm 3 mps 745 mmHg 73%
21:00 +1°C° 0 mm 3 mps 745 mmHg 75%
22:00 +1°C° 0 mm 3 mps 745 mmHg 77%
23:00 0°C° 0 mm 3 mps 745 mmHg 79%

26 April, Monday

Time Temperature Precipitation Wind Pressure Humidity
00:00 0°C° 0 mm 3 mps 745 mmHg 82%
01:00 -1°C° 0 mm 3 mps 744 mmHg 84%
02:00 -2°C° 0 mm 2 mps 744 mmHg 87%
03:00 -2°C° 0 mm 2 mps 744 mmHg 88%
04:00 -2°C° 0 mm 2 mps 745 mmHg 89%
05:00 -3°C° 0 mm 2 mps 745 mmHg 90%
06:00 -1°C° 0 mm 3 mps 745 mmHg 78%
07:00 0°C° 0 mm 3 mps 745 mmHg 67%
08:00 +2°C° 0 mm 3 mps 745 mmHg 55%
09:00 +3°C° 0 mm 3 mps 745 mmHg 50%
10:00 +4°C° 0 mm 3 mps 745 mmHg 45%
11:00 +6°C° 0 mm 4 mps 745 mmHg 40%
12:00 +6°C° 0 mm 4 mps 744 mmHg 41%
13:00 +7°C° 0 mm 4 mps 744 mmHg 42%
14:00 +7°C° 0 mm 4 mps 743 mmHg 44%
15:00 +7°C° 0.1 mm 5 mps 743 mmHg 46%
16:00 +7°C° 0.1 mm 5 mps 743 mmHg 49%
17:00 +7°C° 0.1 mm 5 mps 743 mmHg 51%
18:00 +5°C° 0 mm 3 mps 743 mmHg 56%
19:00 +5°C° 0 mm 2 mps 743 mmHg 62%
20:00 +4°C° 0 mm 1 mps 743 mmHg 67%
21:00 +4°C° 0 mm 1 mps 743 mmHg 67%
22:00 +3°C° 0 mm 1 mps 743 mmHg 68%
23:00 +3°C° 0 mm 1 mps 743 mmHg 68%

27 April, Tuesday

Time Temperature Precipitation Wind Pressure Humidity
00:00 +2°C° 0 mm 1 mps 743 mmHg 69%
01:00 +2°C° 0 mm 1 mps 743 mmHg 71%
02:00 +1°C° 0 mm 2 mps 743 mmHg 72%
03:00 +1°C° 0 mm 2 mps 742 mmHg 74%
04:00 +1°C° 0 mm 2 mps 742 mmHg 76%
05:00 -1°C° 0 mm 2 mps 741 mmHg 78%
06:00 +1°C° 0 mm 3 mps 741 mmHg 73%
07:00 +3°C° 0 mm 3 mps 741 mmHg 69%
08:00 +5°C° 0 mm 4 mps 741 mmHg 65%
09:00 +6°C° 0 mm 4 mps 740 mmHg 60%
10:00 +8°C° 0 mm 5 mps 740 mmHg 56%
11:00 +9°C° 0 mm 5 mps 739 mmHg 52%
12:00 +10°C° 0 mm 5 mps 738 mmHg 50%
13:00 +11°C° 0 mm 6 mps 738 mmHg 48%
14:00 +13°C° 0 mm 6 mps 737 mmHg 46%
15:00 +11°C° 0 mm 6 mps 736 mmHg 50%
16:00 +12°C° 0 mm 5 mps 736 mmHg 53%
17:00 +12°C° 0 mm 5 mps 735 mmHg 57%
18:00 +10°C° 0.2 mm 5 mps 734 mmHg 66%
19:00 +8°C° 0.2 mm 5 mps 734 mmHg 75%
20:00 +7°C° 0.2 mm 4 mps 733 mmHg 85%
21:00 +7°C° 0.5 mm 4 mps 733 mmHg 88%
22:00 +7°C° 0.5 mm 4 mps 732 mmHg 91%
23:00 +7°C° 0.5 mm 4 mps 732 mmHg 95%
Show more